{"data":{"norad_id":52309,"intl_designator":"2022-041BA","name":"STARLINK-3756","alt_names":[],"object_type":"PAYLOAD","status":"ACTIVE","operator":null,"country":"US","launch_date":"2022-04-21","launch_site_code":"AFETR","launch_vehicle":null,"mission":null,"orbit_class":"UNKNOWN","rcs_meters":null,"size_class":null,"mass_kg":null,"dimensions":null,"purposes":["comms"],"wikipedia_slug":null,"has_3d_model":false,"image_url":null,"decayed_at":null,"tle_current":{"epoch":"2026-09-19T07:51:18.233568Z","epoch_age_seconds":160952,"freshness":"FRESH","line1":"1 52309U 22041BA  26262.32729437  .00000247  00000+0  19726-4 0  9994","line2":"2 52309  53.1597 285.2303 0001207  80.8070 279.3068 15.31698203245292","mean_motion":15.31698203,"eccentricity":0.0001207,"inclination_deg":53.1597,"raan_deg":285.2303,"arg_perigee_deg":80.807,"mean_anomaly_deg":279.3068,"bstar":1.9726e-5,"rev_number":24529,"period_min":94.013298258077,"perigee_km":469.91869189449,"apogee_km":471.57201209426,"semimajor_km":6848.8823519944,"source":"CELESTRAK","updated_at":"2026-09-20T09:00:40.019771Z"}}}